Location: Home
(42.5358°N, 72.7383°W)
Time: 20:29:02
(UTC-05:00)

Tiros 1 - Pass Details

Date: 02 December 2021
Orbit: 629 x 664 km, 48.4° (Epoch: 18 January)

Event Time Altitude Azimuth Distance (km) Brightness Sun altitude
Rises 19:27:48 0° 246° (WSW) 2,918 11.4 -34.2°
Reaches altitude 10° 19:30:07 10° 248° (WSW) 2,016 10.4 -34.6°
Enters shadow 19:31:39 21° 250° (WSW) 1,434 9.4 -34.9°
